HYPSO-1

导读 | 星芒AI

HYPSO-1 是一颗由加拿大公司 Hypronex 开发的高光谱成像卫星,旨在提供高分辨率的地球观测数据。该卫星搭载先进的多光谱传感器,能够捕捉从可见光到近红外波段的详细光谱信息,适用于环境监测、农业管理、资源勘探和灾害评估等领域。HYPSO-1 以小型卫星平台实现高性能成像,具有成本低、部署灵活的优势,为科研和商业用户提供高质量的遥感数据服务。

基本信息
目录编号:
51053
目录名称:
HYPSO-1
国际标识:
2022-002BX
轨道中心:
EARTH
卫星名称:
HYPSO-1
卫星全名:
--
卫星状态:
在轨 (已飞行1430 天)
发射日期:
2022-01-13 UTC
国别 :
挪威 (NO)
星等 :
--
轨道信息
数据来源 国际轨道数据
星历时间: 2025-12-13T06:31:21+0800
11小时前
查看轨道信息
半长轴: 6786.608km
偏心率: 0.0002284
轨道倾角: 97.309°
近地点辐角 258.970°
升交点赤经 57.490°
平近点角 101.129°
近地点: 406.922km
远地点: 410.024km
周期: 92.734分钟
每日圈数: 15.528292
详细信息
使用方式:
暂无
2D轨道图
3D轨道图
轨道高度分析图
轨道倾角分析图
轨道综合分析图
查看轨道综合分析图